Weather Roundup
Issued by NWS Chicago, IL

Home | Current Version | Previous Version | Graphics & Text | Print | Product List | Glossary On
Versions: 1 2 3 4 5 6 7 8 9 10 11 12 13 14 15 16 17 18 19 20 21 22 23 24 25 26 27 28 29 30 31 32 33 34 35 36 37 38 39 40 41 42 43 44 45 46 47 48 49 50
000
NZUS59 KLOT 270412
HRRLOT

CHICAGO AREA WEATHER ROUNDUP
NATIONAL WEATHER SERVICE CHICAGO/ROMEOVILLE IL
1000 PM CST SUN FEB 26 2017

NOTE: "FAIR" INDICATES FEW OR NO CLOUDS BELOW 12,000 FEET WITH NO
SIGNIFICANT WEATHER AND/OR OBSTRUCTIONS TO VISIBILITY.

* THESE STATIONS ARE NOT UNDER NWS QUALITY CONTROL. THEY ALSO MAY NOT
  REPORT WEATHER SUCH AS PRECIPITATION OR FOG.

ILZ005-006-012>014-019>023-270500-
NORTHEAST ILLINOIS

CITY           SKY/WX    TMP DP  RH WIND       PRES   REMARKS
OHARE            N/A     41  27  57 SW14      30.03R
MIDWAY           N/A     40  24  53 SW10G20   30.05R
AURORA           N/A     37  29  72 SW9       30.05R
LANSING*         N/A     33  27  77 SW7       30.08R WCI  27
JOLIET*        CLOUDY    40  27  60 SW7       30.07R
WAUKEGAN       MOCLDY    39  30  70 SW7       30.01R
DUPAGE AIRPORT   N/A     38  28  67 SW13      30.03R
WHEELING         N/A     40  28  62 SW8       30.04R
KANKAKEE*        N/A     32  25  77 SW9       30.10R WCI  24
MORRIS*          N/A     37  26  65 SW9       30.06S
LEWIS AIRPORT* CLOUDY    39  30  70 SW12G21   30.06R
NORTHERLY ISL    N/A     41  24  51 SW16        N/A
$$

WIZ051-052-058>065-066-070>072-270500-
SOUTHEAST WISCONSIN

CITY           SKY/WX    TMP DP  RH WIND       PRES   REMARKS
MILWAUKEE        N/A     37  24  59 SW7       29.99R
KENOSHA*         N/A     35  28  75 W9        30.01R WCI  28
RACINE*          N/A     37  27  67 SW8       30.02R
WAUKESHA         N/A     32  23  69 SW6       29.99R WCI  26
WEST BEND        N/A     34  23  64 W7        29.97R WCI  28
$$

INZ001>003-010>013-019-020-270500-
NORTHWEST INDIANA

CITY           SKY/WX    TMP DP  RH WIND       PRES   REMARKS
GARY*            N/A     39  22  50 SW7       30.08R
MICHIGAN CITY* NOT AVBL
RENSSELAER*    NOT AVBL
VALPARAISO       N/A     36  23  59 SW8       30.09R
$$

LMZ740>746-270500-
SOUTHERN LAKE MICHIGAN

STATION/POSITION TIME  SKY/WX   TEMP WIND        PRES    VSBY
                                AIR  DIR/SP/G
                 (UTC)          (F)  (DEG/KT/KT) (MB)    (MI)
HARRISON CRIB    0340            43  210/ 21/ 27   N/A
BURNHAM HARBOR   0400            41  200/  9/ 16   N/A
CALUMET HARBOR   0342            40  200/ 11/ 15 1017.2R
BURNS HARBOR     0340            40  210/ 15/ 19 1018.6R
MICHIGAN CITY    0340            40  180/ 17/ 20   N/A
$$

ABBREVIATIONS USED IN REMARKS
   TC - TEMPERATURE IN CELSIUS
  WCI - WIND CHILL INDEX
   HX - HEAT INDEX
  VSB - VISIBILITY
$$




USA.gov is the U.S. government's official web portal to all federal, state and local government web resources and services.